AFR1426 LFPG-LIPZ

Flight info

Callsign AFR1426
Flight time N/A
Altitude 35000
Route LANVI DCT DEVDI DCT RIPUS DCT RESIA DCT ADOSA L612 ALBET
Aircraft A320/M-SDE3FGHIRWY/LB1

Departure

Time 2026-04-30 15:11
Airport Charles de Gaulle International Airport (LFPG)

Arrival

Time N/A
Airport Venice Marco Polo Airport (LIPZ)
Time Latitude Longitude Altitude Speed Heading
2026-04-30 14:37 49.01345 2.50144 336 ft 0 kts 311°
2026-04-30 15:02 49.01356 2.50127 336 ft 3 kts 317°
2026-04-30 15:03 49.01415 2.50205 337 ft 9 kts 87°
2026-04-30 15:03 49.01424 2.50407 338 ft 8 kts 82°
2026-04-30 15:04 49.01438 2.50599 339 ft 9 kts 86°
2026-04-30 15:04 49.01448 2.50838 342 ft 7 kts 84°
2026-04-30 15:05 49.01467 2.51150 348 ft 12 kts 87°
2026-04-30 15:06 49.01519 2.51287 353 ft 5 kts 13°
2026-04-30 15:06 49.01608 2.51287 354 ft 10 kts 356°
2026-04-30 15:07 49.01754 2.51269 357 ft 9 kts 356°
2026-04-30 15:07 49.01866 2.51256 359 ft 7 kts 356°
2026-04-30 15:08 49.01957 2.51251 361 ft 5 kts 15°
2026-04-30 15:08 49.02008 2.51301 363 ft 4 kts 45°
2026-04-30 15:09 49.02066 2.51449 366 ft 7 kts 75°
2026-04-30 15:09 49.02083 2.51726 368 ft 45 kts 85°
2026-04-30 15:10 49.02190 2.54066 448 ft 161 kts 89°
2026-04-30 15:11 49.02612 2.61326 3233 ft 190 kts 88°
2026-04-30 15:11 49.02825 2.65719 4430 ft 230 kts 87°
2026-04-30 15:12 49.03226 2.73515 6365 ft 262 kts 88°
2026-04-30 15:13 49.03494 2.79042 7829 ft 268 kts 87°
2026-04-30 15:14 49.03840 2.90597 10557 ft 282 kts 101°
2026-04-30 15:14 49.02309 2.99847 11833 ft 313 kts 104°
2026-04-30 15:16 48.99766 3.16171 14779 ft 324 kts 103°
2026-04-30 15:17 48.97711 3.29691 16872 ft 334 kts 103°
2026-04-30 15:18 48.95043 3.47090 19387 ft 342 kts 103°
2026-04-30 15:19 48.93672 3.57794 20773 ft 348 kts 96°